ATLAS 1 CENTAUR R/B

基本信息
目录编号:
20713
目录名称:
ATLAS 1 CENTAUR R/B
国际标识:
1990-065B
轨道中心:
EARTH
物体状态:
在轨
发射日期:
1990-07-25 UTC
国别:
美国 (US)
轨道信息
数据来源: 国际轨道数据
星历时间: 2026-07-13T19:15:56+0800
半长轴: 21380.57km
偏心率: 0.6848413
轨道倾角: 17.619°
近地点辐角: 202.755°
升交点赤经: 133.051°
平近点角: 100.088°
近地点: 360.135km
远地点: 29644.731km
周期: 518.548分钟
每日圈数: 2.776987
详细信息
发射场:
AFETR
轨道高度:
LEO
数据来源:
AOE Integration Group
参考系:
TEME
时间系统:
UTC
历元类型:
SGP4
2D轨道图
3D轨道图
轨道高度分析图
轨道倾角分析图
轨道综合分析图
查看轨道综合分析图